Location: Prairie Dale
(45.6972°N, 104.5033°W)
Time: 16:14:56
(UTC+00:00)

Envisat - Pass Details

Date: 22 January 2022
Orbit: 764 x 765 km, 98.2° (Epoch: 15 May)

Event Time Altitude Azimuth Distance (km) Brightness Sun altitude
Rises 11:47:43 0° 15° (NNE) 3,241 6.4 -28.1°
Reaches altitude 10° 11:50:03 10° 17° (NNE) 2,311 5.6 -27.7°
Maximum altitude 11:55:08 72° 102° (ESE) 805 3.1 -26.8°
Drops below altitude 10° 12:00:11 10° 187° (S) 2,295 5.4 -25.9°
Sets 12:02:29 0° 190° (S) 3,217 6.2 -25.5°
